Lexington Weather

Lexington, Massachusetts, USA

43°F
1/23/2020 12:23pm 
  • Lexington Conditions: Mostly cloudy
  • Temperature: 43.2°F / 6.2°CWarmer 4.4°F than last hour.
  • Dew Point: 21.6°FDecreased 0.7°Fsince last hour.
  • Relative Humidity: 42%Decreased 9.0% since last hour.
  • Wind: Calm, 10-min avg: Calm, gust: None
  • Barometer: 30.30 inFalling 0.02  inHg/hr Falling Slowly
  • Visibility: 10 miles
  • Rain Today: 0.01 in
  •   

Regional Weather Roundup
for Boston / Norton, MA

        
000
ASUS41 KBOX 202300
RWRBOX

REGIONAL WEATHER ROUNDUP
NATIONAL WEATHER SERVICE BOSTON/NORTON MA
600 PM EST MON JAN 20 2020

NOTE:  "FAIR" INDICATES FEW OR NO CLOUDS BELOW 12,000 FEET WITH NO 
SIGNIFICANT WEATHER AND/OR OBSTRUCTIONS TO VISIBILITY.

MAZALL-210000-
EASTERN MASSACHUSETTS
  
CITY           SKY/WX    TMP DP  RH WIND       PRES   REMARKS
BOSTON         FAIR      28  -3  26 NW12      30.25R WCI  18          
BEVERLY        FAIR      23  -3  32 NW13      30.24R WCI  11          
LAWRENCE       FAIR      22  -4  32 NW9       30.26R WCI  12          
BEDFORD        FAIR      21  -2  36 NW9       30.24R WCI  11          
BLUE HILL      NOT AVBL                                               
NORWOOD        FAIR      25  -3  29 CALM      30.25R                  
MARSHFIELD     NOT AVBL                                               
PLYMOUTH       FAIR      24   1  36 NW6       30.24R WCI  17          
TAUNTON        FAIR      23  -1  35 CALM      30.25R                  
NEW BEDFORD    FAIR      24   1  36 VRB6      30.25R WCI  17          
$$

MAZALL-210000-
CAPE COD AND THE ISLANDS
  
CITY           SKY/WX    TMP DP  RH WIND       PRES   REMARKS
FALMOUTH       CLEAR     23   1  39 CALM      30.24R                  
HYANNIS        NOT AVBL                                               
CHATHAM        FAIR      26  12  55 VRB3      30.23R                  
PROVINCETOWN   FAIR      28  12  51 NW16G22   30.24R WCI  16          
NANTUCKET      FAIR      27  13  55 NW10      30.23R WCI  17          
MARTHAS VNYRD  FAIR      25   5  42 NW7       30.24R WCI  17          
$$
 
MAZALL-210000-
CENTRAL AND WESTERN MASSACHUSETTS
  
CITY           SKY/WX    TMP DP  RH WIND       PRES   REMARKS
WORCESTER      FAIR      18  -4  37 NW8       30.20R WCI   8          
FITCHBURG      FAIR      19  -4  36 NW9       30.25R WCI   8          
ORANGE         FAIR      19  -4  36 CALM      30.26R                  
SPRINGFIELD    NOT AVBL                                               
WESTFIELD      FAIR      20  -1  40 NW15      30.29R WCI   6          
NORTH ADAMS    FAIR      15  -2  46 W9        30.30R WCI   3          
PITTSFIELD     FAIR      14  -2  49 W6        30.23R WCI   5          
$$
 
RIZALL-210000-
RHODE ISLAND
  
CITY           SKY/WX    TMP DP  RH WIND       PRES   REMARKS
PROVIDENCE     FAIR      25   2  37 NW6       30.27R WCI  18          
NEWPORT        FAIR      26   3  37 N8        30.25R WCI  18          
BLOCK ISLAND   FAIR      27   4  37 N7        30.27R WCI  19          
SMITHFIELD     FAIR      22   0  38 NW8       30.24R WCI  12          
WESTERLY       FAIR      29   1  30 VRB5      30.28R WCI  24          
$$
 
CTZALL-210000-
CONNECTICUT
  
CITY           SKY/WX    TMP DP  RH WIND       PRES   REMARKS
BRADLEY INTL   FAIR      21  -1  38 NW12      30.30R WCI   9          
HARTFORD       FAIR      23  -1  35 NW8       30.31R WCI  14          
BRIDGEPORT     FAIR      26  -4  27 NW8       30.32R WCI  18          
DANBURY        FAIR      23  -6  28 N7        30.31R WCI  15          
GROTON         NOT AVBL                                               
NEW HAVEN      FAIR      26  -3  28 N7        30.31R WCI  18          
CHESTER        NOT AVBL                                               
MERIDEN        FAIR      23   0  36 NW9G22    30.31R WCI  13          
WILLIMANTIC    FAIR      23   0  36 NW7       30.29R WCI  15          
OXFORD         FAIR      20  -3  36 NW3       30.28R                  
$$

MEZ002-015-021-024-NHZ003-005-008-011-012-014-VTZ005-008-210000-
NORTHERN NEW ENGLAND
  
CITY           SKY/WX    TMP DP  RH WIND       PRES   REMARKS
PORTLAND ME    FAIR      23  -3  32 N3        30.20R                  
BANGOR ME      FAIR      17   0  47 W6        30.14R WCI   9          
CONCORD NH     FAIR      18  -4  37 NW8       30.24R WCI   8          
MANCHESTER NH  FAIR      22  -3  33 W3        30.23R                  
NASHUA NH      FAIR      22   1  40 W8        30.26R WCI  12          
PORTSMOUTH NH  NOT AVBL                                               
JAFFREY NH     FAIR      16  -3  43 CALM      30.20R                  
KEENE NH       FAIR      17   0  47 CALM      30.27R                  
BURLINGTON VT  FAIR      14   1  56 SW5       30.31R WCI   6          
MT. WASHINGTON PTCLDY    -9 -20  59 NW61        N/A  WCI -47          
$$

NYZ052-076-210000-
EASTERN NEW YORK
  
CITY           SKY/WX    TMP DP  RH WIND       PRES   REMARKS
ALBANY         FAIR      18   0  45 W17       30.36R WCI   3          
NEW YORK CITY  FAIR      30   0  27 N15       30.33R WCI  19          
$$
 
ANZALL-210000-
MARINE OBSERVATIONS
  
STATION/POSITION TIME  TEMP    WIND        PRES    VSBY  WAVE
                       AIR SEA DIR/SP/G                  HT/PER
                 (UTC) (F)     (DEG/KT/KT) (MB)    (MI)  (FT/S)
BOSTON BUOY      2150   28 43  320/ 19/ 23 1022.2          4/ 7
BUZZARDS BAY     2200   29     330/ 14/ 17 1023.9R
NANTUCKET SOUND  2240                        N/A
MASS BAY-STELLWA 2204   27 42  340/ 19/ 23 1021.2R  1 7/8  4/ 6
ISLE OF SHOALS   2200   24     310/ 22/ 24 1022.5R
S OF BLOCK IS    2230      45                N/A           4/11
$$

......................KEY.........................
  SKY/WX - SKY CONDITION/PRESENT WEATHER
  TMP    - TEMPERATURE IN FAHRENHEIT
  DWPT   - DEWPOINT IN FAHRENHEIT
  RH     - RELATIVE HUMIDITY IN PERCENT
  WIND   - DIRECTION AND SPEED IN MPH
  PRES   - MEAN SEA LEVEL PRESSURE IN INCHES OF HG
  WCI    - WIND CHILL INDEX
  VSB    - VISIBILITY IN MILES
  HX     - HEAT INDEX
  TC     - TEMPERATURE IN CELSIUS
  VRB    - VARIABLE WIND DIRECTION
  N/A    - NOT AVAILABLE
  
      

Other recent Regional Weather Roundups

Thu Jan 23, 12:10pm

Thu Jan 23, 12:01pm

Thu Jan 23, 11:10am

Thu Jan 23, 11:00am

Thu Jan 23, 10:10am

Thu Jan 23, 10:00am

Thu Jan 23, 9:10am

Thu Jan 23, 9:00am

Thu Jan 23, 8:10am

Thu Jan 23, 8:00am

Thu Jan 23, 7:10am

Thu Jan 23, 7:01am

Thu Jan 23, 6:10am

Thu Jan 23, 6:00am

Thu Jan 23, 5:10am

Thu Jan 23, 5:00am

Thu Jan 23, 4:10am

Thu Jan 23, 4:01am

Thu Jan 23, 3:10am

Thu Jan 23, 3:00am

Thu Jan 23, 2:10am

Thu Jan 23, 2:00am

Thu Jan 23, 1:10am

Thu Jan 23, 1:00am

Thu Jan 23, 12:10am

Thu Jan 23, 12:00am

Wed Jan 22, 11:10pm

Wed Jan 22, 11:01pm

Wed Jan 22, 10:10pm

Wed Jan 22, 10:00pm

Wed Jan 22, 9:10pm

Wed Jan 22, 9:00pm

Wed Jan 22, 8:10pm

Wed Jan 22, 8:01pm

Wed Jan 22, 7:10pm

Wed Jan 22, 7:00pm

Wed Jan 22, 6:10pm

Wed Jan 22, 6:01pm

Wed Jan 22, 5:10pm

Wed Jan 22, 5:00pm

Wed Jan 22, 4:10pm

Wed Jan 22, 4:00pm

Wed Jan 22, 3:10pm

Wed Jan 22, 3:00pm

Wed Jan 22, 2:10pm

Wed Jan 22, 2:00pm

Wed Jan 22, 1:10pm

Wed Jan 22, 1:00pm

Wed Jan 22, 12:10pm

Wed Jan 22, 12:00pm

Wed Jan 22, 11:10am

Wed Jan 22, 11:00am

Wed Jan 22, 10:10am

Wed Jan 22, 10:01am

Wed Jan 22, 9:10am

Wed Jan 22, 9:00am

Wed Jan 22, 8:10am

Wed Jan 22, 8:00am

Wed Jan 22, 7:10am

Wed Jan 22, 7:00am

Wed Jan 22, 6:10am

Wed Jan 22, 6:00am

Wed Jan 22, 5:10am

Wed Jan 22, 5:00am

Wed Jan 22, 4:10am

Wed Jan 22, 4:00am

Wed Jan 22, 3:10am

Wed Jan 22, 3:01am

Wed Jan 22, 2:10am

Wed Jan 22, 2:00am

Wed Jan 22, 1:10am

Wed Jan 22, 1:00am

Wed Jan 22, 12:10am

Wed Jan 22, 12:00am

Tue Jan 21, 11:10pm

Tue Jan 21, 11:00pm

Tue Jan 21, 10:10pm

Tue Jan 21, 10:00pm

Tue Jan 21, 9:10pm

Tue Jan 21, 9:01pm

Tue Jan 21, 8:10pm

Tue Jan 21, 8:00pm

Tue Jan 21, 7:10pm

Tue Jan 21, 7:00pm

Tue Jan 21, 6:10pm

Tue Jan 21, 6:01pm

Tue Jan 21, 5:10pm

Tue Jan 21, 5:00pm

Tue Jan 21, 4:10pm

Tue Jan 21, 4:00pm

Tue Jan 21, 3:10pm

Tue Jan 21, 3:01pm

Tue Jan 21, 2:10pm

Tue Jan 21, 2:00pm

Tue Jan 21, 1:10pm

Tue Jan 21, 1:00pm

Tue Jan 21, 12:10pm

Tue Jan 21, 12:00pm

Tue Jan 21, 11:10am

Tue Jan 21, 11:00am

Tue Jan 21, 10:10am

Tue Jan 21, 10:00am

Tue Jan 21, 9:10am

Tue Jan 21, 9:00am

Tue Jan 21, 8:10am

Tue Jan 21, 8:00am

Tue Jan 21, 7:10am

Tue Jan 21, 7:00am

Tue Jan 21, 6:10am

Tue Jan 21, 6:00am

Tue Jan 21, 5:10am

Tue Jan 21, 5:00am

Tue Jan 21, 4:10am

Tue Jan 21, 4:00am

Tue Jan 21, 3:10am

Tue Jan 21, 3:00am

Tue Jan 21, 2:10am

Tue Jan 21, 2:01am

Tue Jan 21, 1:10am

Tue Jan 21, 1:00am

Tue Jan 21, 12:10am

Tue Jan 21, 12:00am

Mon Jan 20, 11:10pm

Mon Jan 20, 11:00pm

Mon Jan 20, 10:10pm

Mon Jan 20, 10:00pm

Mon Jan 20, 9:10pm

Mon Jan 20, 9:00pm

Mon Jan 20, 8:10pm

Mon Jan 20, 8:00pm

Mon Jan 20, 7:10pm

Mon Jan 20, 7:00pm

Mon Jan 20, 6:10pm

Mon Jan 20, 5:10pm

Mon Jan 20, 5:00pm

Mon Jan 20, 4:10pm

Mon Jan 20, 4:01pm

Mon Jan 20, 3:10pm

Mon Jan 20, 3:00pm

Mon Jan 20, 2:10pm

Mon Jan 20, 2:00pm

Mon Jan 20, 1:10pm

Mon Jan 20, 1:00pm

Meta data:

ID: 44553ef8-ef16-4af3-86d1-2c61a44a5322
Link: https://api.weather.gov/products/44553ef8-ef16-4af3-86d1-2c61a44a5322